User: anonymous   Login
Location: Unspecified
(0.0000°N, 0.0000°E)
Time: 22:09:28
(UTC+00:00)
Language:

BIRD JJ - Orbit

View from above orbital plane
View from above orbital plane
View from above satellite
View from above satellite

Ground track
Ground track

The orbit data is extracted from the following two-line orbital elements,

1 42820U 98067MU  18344.54258162  .00055692  00000-0  31778-3 0  9995
2 42820  51.6306 177.5991 0003328 155.6589 204.4569 15.78341172 81607
Epoch (UTC): 10 December 2018 13:01:19
Eccentricity: 0.0003328
inclination: 51.6306°
perigee height: 333 km
apogee height: 337 km
right ascension of ascending node: 177.5991°
argument of perigee: 155.6589°
revolutions per day: 15.78341172
mean anomaly at epoch: 204.4569°
orbit number at epoch: 8160

The dashed part of the orbit path shows where the satellite is in the earth's shadow,  

DLR